Location: Hamburg
(53.5554°N, 9.9941°E)
Time: 04:20:55
(UTC+02:00)

ISS - Pass Details

Date: 16 May 2021
Orbit: 417 x 422 km, 51.6° (Epoch: 15 June)

Event Time Altitude Azimuth Distance (km) Brightness Sun altitude
Rises 04:27:54 0° 275° (W) 2,375 -0.3 -6.5°
Reaches altitude 10° 04:31:07 10° 242° (WSW) 1,507 -1.6 -6.1°
Maximum altitude 04:32:24 12° 220° (SW) 1,402 -1.8 -6.0°
Drops below altitude 10° 04:33:41 10° 197° (SSW) 1,504 -1.5 -5.9°
Sets 04:36:53 0° 164° (SSE) 2,364 -0.2 -5.5°
